Date,TemperatureHighF,TemperatureAvgF,TemperatureLowF,DewpointHighF,DewpointAvgF,DewpointLowF,HumidityHigh,HumidityAvg,HumidityLow,PressureMaxIn,PressureMinIn,WindSpeedMaxMPH,WindSpeedAvgMPH,GustSpeedMaxMPH,PrecipitationSumIn
2013-3-1,33.0,29.0,27.0,27.0,24.0,20.0,95,82,66,0.00,40.00,1,0,3,0.11
2013-3-2,27.0,24.0,20.0,20.0,17.1,13.0,83,75,59,0.00,40.00,0,0,0,0.01
2013-3-3,25.0,20.7,18.0,18.0,13.8,10.0,83,74,61,0.00,40.00,0,0,0,0.00
2013-3-4,40.0,27.4,18.0,15.0,10.4,7.0,83,52,27,0.00,40.00,0,0,1,0.06
2013-3-5,38.0,32.7,29.0,33.0,27.4,9.0,96,82,36,0.00,40.00,3,1,7,0.53
2013-3-6,31.0,26.5,23.0,30.0,23.6,20.0,96,89,81,0.00,40.00,6,2,15,0.35
2013-3-7,32.0,27.5,26.0,27.0,24.4,23.0,94,88,75,0.00,40.00,5,2,12,0.06
2013-3-8,41.0,31.6,27.0,25.0,22.5,21.0,89,70,49,0.00,40.00,7,2,16,0.18
2013-3-9,60.0,40.4,24.0,29.0,23.9,21.0,87,56,29,0.00,40.00,5,3,10,0.03
2013-3-10,64.0,50.9,41.0,34.0,28.1,24.0,53,42,28,0.00,40.00,7,4,15,0.00
2013-3-11,53.0,49.4,47.0,47.0,37.3,29.0,96,64,44,0.00,40.00,7,5,19,0.13
2013-3-12,50.0,39.3,31.0,47.0,34.3,25.0,97,83,58,0.00,40.00,7,4,15,0.30
2013-3-13,33.0,28.6,22.0,28.0,22.0,13.0,90,77,55,0.00,40.00,8,5,24,0.06
2013-3-14,39.0,26.9,19.0,18.0,13.3,11.0,88,59,32,0.00,40.00,7,6,19,0.02
2013-3-15,56.0,39.5,26.0,30.0,21.2,10.0,64,49,35,0.00,40.00,8,4,18,0.01
2013-3-16,69.0,54.7,44.0,47.0,39.3,29.0,89,58,38,0.00,40.00,10,5,23,0.05
2013-3-17,50.0,42.5,35.0,47.0,39.8,34.0,96,90,81,0.00,40.00,5,3,11,0.32
2013-3-18,35.0,32.4,31.0,34.0,31.3,29.0,97,96,94,0.00,40.00,7,4,14,0.53
2013-3-19,49.0,38.9,33.0,38.0,20.2,-4.0,98,57,16,0.00,40.00,11,6,31,0.11
2013-3-20,44.0,34.5,26.0,27.0,8.0,-2.0,91,35,19,0.00,40.00,9,6,25,0.01
2013-3-21,27.0,21.0,16.0,25.0,12.2,4.0,91,69,49,0.00,40.00,8,6,19,0.05
2013-3-22,42.0,25.6,12.0,12.0,8.9,5.0,77,52,28,0.00,40.00,6,4,14,0.01
2013-3-23,49.0,36.8,28.0,20.0,14.0,8.0,52,39,29,0.00,40.00,4,1,7,0.00
2013-3-24,38.0,32.7,29.0,30.0,24.0,15.0,96,74,40,0.00,40.00,4,1,7,0.07
2013-3-25,34.0,28.9,26.0,28.0,24.9,22.0,96,85,67,0.00,40.00,8,3,16,0.21
2013-3-26,34.0,29.2,26.0,25.0,23.9,22.0,90,81,61,0.00,40.00,7,3,17,0.09
2013-3-27,35.0,28.8,25.0,24.0,21.9,20.0,93,76,55,0.00,40.00,7,3,16,0.17
2013-3-28,42.0,37.9,31.0,21.0,18.9,17.0,56,46,41,0.00,40.00,7,5,18,0.39
2013-3-29,51.0,38.2,26.0,24.0,20.2,17.0,73,50,31,0.00,40.00,7,3,19,0.01
2013-3-30,58.0,44.5,32.0,32.0,25.7,22.0,82,51,27,0.00,40.00,5,2,13,0.01
2013-3-31,52.0,46.7,42.0,49.0,38.6,-99.9,97,79,48,0.00,40.00,7,4,21,0.28